Time,TemperatureF,DewpointF,PressureIn,WindDirection,WindDirectionDegrees,WindSpeedMPH,WindSpeedGustMPH,Humidity,HourlyPrecipIn,Conditions,Clouds,dailyrainin,SoftwareType,DateUTC
2013-04-22 00:01:00,53.0,47.0,29.90,SE,124,0.0,0.0,79,0.00,,,0.00,,2013-04-22 07:01:00,
2013-04-22 00:11:00,53.0,47.0,29.90,SE,124,0.0,0.0,79,0.00,,,0.00,,2013-04-22 07:11:00,
2013-04-22 00:21:00,52.0,46.0,29.90,SE,124,0.0,0.0,80,0.00,,,0.00,,2013-04-22 07:21:00,
2013-04-22 00:31:00,52.0,46.0,29.90,SE,124,0.0,0.0,81,0.00,,,0.00,,2013-04-22 07:31:00,
2013-04-22 00:42:00,52.0,46.0,29.90,SE,124,0.0,0.0,81,0.00,,,0.00,,2013-04-22 07:42:00,
2013-04-22 00:52:00,51.0,45.0,29.90,SE,124,0.0,0.0,81,0.00,,,0.00,,2013-04-22 07:52:00,
2013-04-22 01:01:00,51.0,45.0,29.90,SE,124,0.0,0.0,81,0.00,,,0.00,,2013-04-22 08:01:00,
2013-04-22 01:11:00,51.0,45.0,29.90,SE,124,0.0,0.0,81,0.00,,,0.00,,2013-04-22 08:11:00,
2013-04-22 01:21:00,51.0,46.0,29.90,SE,124,0.0,0.0,84,0.00,,,0.00,,2013-04-22 08:21:00,
2013-04-22 01:31:00,50.0,45.0,29.90,SE,124,0.0,0.0,84,0.00,,,0.00,,2013-04-22 08:31:00,
2013-04-22 01:41:00,50.0,45.0,29.90,SE,124,0.0,0.0,84,0.00,,,0.00,,2013-04-22 08:41:00,
2013-04-22 01:52:00,50.0,45.0,29.90,SE,124,0.0,0.0,84,0.00,,,0.00,,2013-04-22 08:52:00,
2013-04-22 02:01:00,50.0,45.0,29.89,SE,124,0.0,0.0,84,0.00,,,0.00,,2013-04-22 09:01:00,
2013-04-22 02:11:00,50.0,45.0,29.89,SE,124,0.0,0.0,84,0.00,,,0.00,,2013-04-22 09:11:00,
2013-04-22 02:21:00,50.0,45.0,29.89,SE,124,0.0,0.0,84,0.00,,,0.00,,2013-04-22 09:21:00,
2013-04-22 02:32:00,49.0,45.0,29.88,SE,124,0.0,0.0,85,0.00,,,0.00,,2013-04-22 09:32:00,
2013-04-22 02:42:00,49.0,45.0,29.88,SE,124,0.0,0.0,85,0.00,,,0.00,,2013-04-22 09:42:00,
2013-04-22 02:52:00,49.0,45.0,29.88,SE,124,0.0,0.0,85,0.00,,,0.00,,2013-04-22 09:52:00,
2013-04-22 03:03:00,49.0,45.0,29.87,SE,124,0.0,0.0,86,0.00,,,0.00,,2013-04-22 10:03:00,
2013-04-22 03:12:00,49.0,45.0,29.87,SE,124,0.0,0.0,86,0.00,,,0.00,,2013-04-22 10:12:00,
2013-04-22 03:22:00,48.0,44.0,29.86,SE,124,0.0,0.0,87,0.00,,,0.00,,2013-04-22 10:22:00,
2013-04-22 03:32:00,48.0,44.0,29.86,SE,124,0.0,0.0,87,0.00,,,0.00,,2013-04-22 10:32:00,
2013-04-22 03:42:00,48.0,44.0,29.86,SE,124,0.0,0.0,87,0.00,,,0.00,,2013-04-22 10:42:00,
2013-04-22 03:52:00,48.0,45.0,29.87,SE,124,0.0,0.0,88,0.00,,,0.00,,2013-04-22 10:52:00,
2013-04-22 04:02:00,48.0,45.0,29.87,SE,124,0.0,0.0,88,0.00,,,0.00,,2013-04-22 11:02:00,
2013-04-22 04:12:00,47.0,43.0,29.87,SE,124,0.0,0.0,87,0.00,,,0.00,,2013-04-22 11:12:00,
2013-04-22 04:22:00,47.0,43.0,29.87,SE,124,0.0,0.0,87,0.00,,,0.00,,2013-04-22 11:22:00,
2013-04-22 04:32:00,47.0,43.0,29.86,SE,124,0.0,0.0,87,0.00,,,0.00,,2013-04-22 11:32:00,
2013-04-22 04:42:00,47.0,43.0,29.86,SE,124,0.0,0.0,87,0.00,,,0.00,,2013-04-22 11:42:00,
2013-04-22 04:52:00,47.0,43.0,29.86,SE,124,0.0,0.0,87,0.00,,,0.00,,2013-04-22 11:52:00,
2013-04-22 05:01:00,47.0,44.0,29.87,SE,124,0.0,0.0,89,0.00,,,0.00,,2013-04-22 12:01:00,
2013-04-22 05:12:00,47.0,44.0,29.87,SE,124,0.0,0.0,89,0.00,,,0.00,,2013-04-22 12:12:00,
2013-04-22 05:21:00,47.0,44.0,29.87,SE,124,0.0,0.0,89,0.00,,,0.00,,2013-04-22 12:21:00,
2013-04-22 05:31:00,46.0,43.0,29.85,SE,124,0.0,0.0,89,0.00,,,0.00,,2013-04-22 12:31:00,
2013-04-22 05:42:00,46.0,43.0,29.85,SE,124,0.0,0.0,89,0.00,,,0.00,,2013-04-22 12:42:00,
2013-04-22 05:52:00,46.0,43.0,29.87,SE,124,0.0,0.0,88,0.00,,,0.00,,2013-04-22 12:52:00,
2013-04-22 06:01:00,46.0,43.0,29.87,SE,124,0.0,0.0,90,0.00,,,0.00,,2013-04-22 13:01:00,
2013-04-22 06:11:00,46.0,43.0,29.87,SE,124,0.0,0.0,90,0.00,,,0.00,,2013-04-22 13:11:00,
2013-04-22 06:22:00,46.0,43.0,29.87,SE,124,0.0,0.0,90,0.00,,,0.00,,2013-04-22 13:22:00,
2013-04-22 06:31:00,45.0,42.0,29.87,SE,124,0.0,0.0,90,0.00,,,0.00,,2013-04-22 13:31:00,
2013-04-22 06:41:00,45.0,42.0,29.87,SE,124,0.0,0.0,90,0.00,,,0.00,,2013-04-22 13:41:00,
2013-04-22 06:52:00,45.0,42.0,29.87,SE,124,0.0,0.0,90,0.00,,,0.00,,2013-04-22 13:52:00,
2013-04-22 07:01:00,45.0,42.0,29.88,SE,124,0.0,0.0,88,0.00,,,0.00,,2013-04-22 14:01:00,
2013-04-22 07:11:00,45.0,42.0,29.88,SE,124,0.0,0.0,89,0.00,,,0.00,,2013-04-22 14:11:00,
2013-04-22 07:21:00,45.0,42.0,29.88,SE,124,0.0,0.0,89,0.00,,,0.00,,2013-04-22 14:21:00,
2013-04-22 07:33:00,45.0,42.0,29.89,SE,124,0.0,0.0,89,0.00,,,0.00,,2013-04-22 14:33:00,
2013-04-22 07:42:00,45.0,42.0,29.89,SE,124,0.0,0.0,89,0.00,,,0.00,,2013-04-22 14:42:00,
2013-04-22 07:51:00,45.0,42.0,29.88,SE,124,0.0,0.0,90,0.00,,,0.00,,2013-04-22 14:51:00,
2013-04-22 08:01:00,46.0,43.0,29.89,SE,124,0.0,0.0,90,0.00,,,0.00,,2013-04-22 15:01:00,
2013-04-22 08:11:00,46.0,43.0,29.89,SE,124,0.0,0.0,90,0.00,,,0.00,,2013-04-22 15:11:00,
2013-04-22 08:22:00,47.0,45.0,29.90,SE,124,0.0,0.0,91,0.00,,,0.00,,2013-04-22 15:22:00,
2013-04-22 08:33:00,49.0,47.0,29.90,SE,124,0.0,0.0,92,0.00,,,0.00,,2013-04-22 15:33:00,
2013-04-22 08:42:00,49.0,47.0,29.90,SE,124,0.0,0.0,92,0.00,,,0.00,,2013-04-22 15:42:00,
2013-04-22 08:53:00,50.0,48.0,29.89,SE,124,0.0,0.0,92,0.00,,,0.00,,2013-04-22 15:53:00,
2013-04-22 09:02:00,52.0,50.0,29.91,SE,124,0.0,0.0,93,0.00,,,0.00,,2013-04-22 16:02:00,
2013-04-22 09:12:00,52.0,50.0,29.91,SE,124,0.0,0.0,93,0.00,,,0.00,,2013-04-22 16:12:00,
2013-04-22 09:22:00,52.0,50.0,29.91,SE,124,0.0,0.0,93,0.00,,,0.00,,2013-04-22 16:22:00,
2013-04-22 09:32:00,59.0,54.0,29.89,SE,124,0.0,0.0,85,0.00,,,0.00,,2013-04-22 16:32:00,
2013-04-22 09:41:00,59.0,54.0,29.89,SE,124,0.0,0.0,85,0.00,,,0.00,,2013-04-22 16:41:00,
2013-04-22 09:52:00,63.0,56.0,29.88,SE,124,0.0,0.0,78,0.00,,,0.00,,2013-04-22 16:52:00,
2013-04-22 10:02:00,69.0,57.0,29.89,SE,124,0.0,0.0,66,0.00,,,0.00,,2013-04-22 17:02:00,
2013-04-22 10:12:00,69.0,57.0,29.89,SE,124,0.0,0.0,66,0.00,,,0.00,,2013-04-22 17:12:00,
2013-04-22 10:21:00,71.0,56.0,29.89,SE,124,0.0,0.0,60,0.00,,,0.00,,2013-04-22 17:21:00,
2013-04-22 10:31:00,73.0,56.0,29.89,SE,124,0.0,0.0,56,0.00,,,0.00,,2013-04-22 17:31:00,
2013-04-22 10:42:00,73.0,56.0,29.89,SE,124,0.0,0.0,56,0.00,,,0.00,,2013-04-22 17:42:00,
2013-04-22 10:51:00,73.0,56.0,29.89,SE,124,0.0,0.0,56,0.00,,,0.00,,2013-04-22 17:51:00,
2013-04-22 11:01:00,80.0,53.0,29.89,NW,322,1.0,3.0,39,0.00,,,0.00,,2013-04-22 18:01:00,
2013-04-22 11:21:00,80.0,52.0,29.89,NW,325,0.0,3.0,38,0.00,,,0.00,,2013-04-22 18:21:00,
2013-04-22 11:32:00,80.0,52.0,29.89,West,273,0.0,2.0,38,0.00,,,0.00,,2013-04-22 18:32:00,
2013-04-22 11:42:00,80.0,52.0,29.89,West,273,0.0,2.0,38,0.00,,,0.00,,2013-04-22 18:42:00,
2013-04-22 11:52:00,80.0,52.0,29.89,West,273,0.0,2.0,38,0.00,,,0.00,,2013-04-22 18:52:00,
2013-04-22 12:01:00,80.0,52.0,29.89,West,273,0.0,2.0,38,0.00,,,0.00,,2013-04-22 19:01:00,
2013-04-22 12:11:00,80.0,52.0,29.89,West,273,0.0,2.0,38,0.00,,,0.00,,2013-04-22 19:11:00,
2013-04-22 12:21:00,83.0,51.0,29.88,NNW,341,0.0,3.0,33,0.00,,,0.00,,2013-04-22 19:21:00,
2013-04-22 12:32:00,84.0,46.0,29.87,West,278,1.0,7.0,27,0.00,,,0.00,,2013-04-22 19:32:00,
2013-04-22 12:40:00,85.0,42.0,29.87,NNW,348,0.0,8.0,22,0.00,,,0.00,,2013-04-22 19:40:00,
2013-04-22 12:42:00,84.0,46.0,29.87,West,278,1.0,7.0,27,0.00,,,0.00,,2013-04-22 19:42:00,
2013-04-22 12:52:00,85.0,49.0,29.86,NNW,328,0.0,6.0,29,0.00,,,0.00,,2013-04-22 19:52:00,
2013-04-22 13:01:00,85.0,42.0,29.87,NNW,348,0.0,8.0,22,0.00,,,0.00,,2013-04-22 20:01:00,
2013-04-22 13:11:00,85.0,42.0,29.87,NNW,348,0.0,8.0,22,0.00,,,0.00,,2013-04-22 20:11:00,
2013-04-22 13:22:00,85.0,42.0,29.87,NNW,348,0.0,8.0,22,0.00,,,0.00,,2013-04-22 20:22:00,
2013-04-22 13:31:00,85.0,42.0,29.87,NNW,348,0.0,8.0,22,0.00,,,0.00,,2013-04-22 20:31:00,
2013-04-22 13:52:00,87.0,37.0,29.84,NW,316,1.0,6.0,17,0.00,,,0.00,,2013-04-22 20:52:00,
2013-04-22 14:11:00,88.0,39.0,29.84,North,351,0.0,3.0,18,0.00,,,0.00,,2013-04-22 21:11:00,
2013-04-22 14:21:00,88.0,39.0,29.84,North,351,0.0,3.0,18,0.00,,,0.00,,2013-04-22 21:21:00,
2013-04-22 14:30:00,89.0,51.0,29.83,South,170,2.0,5.0,27,0.00,,,0.00,,2013-04-22 21:30:00,
2013-04-22 14:32:00,89.0,49.0,29.84,SE,140,2.0,5.0,25,0.00,,,0.00,,2013-04-22 21:32:00,
2013-04-22 14:43:00,89.0,49.0,29.84,SE,140,2.0,5.0,25,0.00,,,0.00,,2013-04-22 21:43:00,
2013-04-22 14:53:00,89.0,51.0,29.83,South,170,2.0,5.0,27,0.00,,,0.00,,2013-04-22 21:53:00,
2013-04-22 15:02:00,89.0,51.0,29.83,South,170,2.0,5.0,27,0.00,,,0.00,,2013-04-22 22:02:00,
2013-04-22 15:12:00,89.0,51.0,29.83,South,170,2.0,5.0,27,0.00,,,0.00,,2013-04-22 22:12:00,
2013-04-22 15:22:00,89.0,51.0,29.83,South,170,2.0,5.0,27,0.00,,,0.00,,2013-04-22 22:22:00,
2013-04-22 16:02:00,88.0,48.0,29.82,SSE,160,1.0,4.0,25,0.00,,,0.00,,2013-04-22 23:02:00,
2013-04-22 16:11:00,89.0,50.0,29.81,SSW,193,1.0,4.0,26,0.00,,,0.00,,2013-04-22 23:11:00,
2013-04-22 16:21:00,89.0,50.0,29.81,SSW,193,1.0,4.0,26,0.00,,,0.00,,2013-04-22 23:21:00,
2013-04-22 16:32:00,88.0,50.0,29.81,NW,307,0.0,5.0,27,0.00,,,0.00,,2013-04-22 23:32:00,
2013-04-22 16:42:00,88.0,50.0,29.81,NW,307,0.0,5.0,27,0.00,,,0.00,,2013-04-22 23:42:00,
2013-04-22 16:52:00,88.0,50.0,29.81,NW,307,0.0,5.0,27,0.00,,,0.00,,2013-04-22 23:52:00,
2013-04-22 17:01:00,87.0,45.0,29.81,South,170,2.0,7.0,23,0.00,,,0.00,,2013-04-23 00:01:00,
2013-04-22 17:11:00,87.0,45.0,29.81,South,170,2.0,7.0,23,0.00,,,0.00,,2013-04-23 00:11:00,
2013-04-22 17:21:00,87.0,45.0,29.81,South,170,2.0,7.0,23,0.00,,,0.00,,2013-04-23 00:21:00,
2013-04-22 17:31:00,85.0,44.0,29.80,ESE,109,0.0,5.0,24,0.00,,,0.00,,2013-04-23 00:31:00,
2013-04-22 17:41:00,85.0,44.0,29.80,ESE,109,0.0,5.0,24,0.00,,,0.00,,2013-04-23 00:41:00,
2013-04-22 17:51:00,85.0,47.0,29.80,NNW,328,0.0,5.0,27,0.00,,,0.00,,2013-04-23 00:51:00,
2013-04-22 18:01:00,85.0,45.0,29.80,SSE,158,0.0,3.0,25,0.00,,,0.00,,2013-04-23 01:01:00,
2013-04-22 18:11:00,85.0,45.0,29.80,SSE,158,0.0,3.0,25,0.00,,,0.00,,2013-04-23 01:11:00,
2013-04-22 18:21:00,84.0,43.0,29.80,WNW,286,0.0,5.0,24,0.00,,,0.00,,2013-04-23 01:21:00,
2013-04-22 18:31:00,84.0,46.0,29.80,North,352,0.0,4.0,27,0.00,,,0.00,,2013-04-23 01:31:00,
2013-04-22 18:41:00,84.0,46.0,29.80,North,352,0.0,4.0,27,0.00,,,0.00,,2013-04-23 01:41:00,
2013-04-22 18:52:00,82.0,42.0,29.80,SSE,159,1.0,3.0,24,0.00,,,0.00,,2013-04-23 01:52:00,
2013-04-22 19:01:00,80.0,42.0,29.80,South,191,0.0,3.0,26,0.00,,,0.00,,2013-04-23 02:01:00,
2013-04-22 19:12:00,80.0,42.0,29.80,South,191,0.0,3.0,26,0.00,,,0.00,,2013-04-23 02:12:00,
2013-04-22 19:21:00,80.0,41.0,29.79,South,169,0.0,3.0,25,0.00,,,0.00,,2013-04-23 02:21:00,
2013-04-22 19:32:00,80.0,41.0,29.79,South,169,0.0,3.0,25,0.00,,,0.00,,2013-04-23 02:32:00,
2013-04-22 19:42:00,80.0,41.0,29.79,South,169,0.0,3.0,25,0.00,,,0.00,,2013-04-23 02:42:00,
2013-04-22 19:52:00,75.0,48.0,29.80,South,169,0.0,0.0,38,0.00,,,0.00,,2013-04-23 02:52:00,
2013-04-22 20:01:00,73.0,48.0,29.79,South,169,0.0,1.0,41,0.00,,,0.00,,2013-04-23 03:01:00,
2013-04-22 20:11:00,73.0,48.0,29.79,South,169,0.0,1.0,41,0.00,,,0.00,,2013-04-23 03:11:00,
2013-04-22 20:20:00,68.0,51.0,29.78,SE,146,0.0,0.0,54,0.00,,,0.00,,2013-04-23 03:20:00,
2013-04-22 20:21:00,71.0,51.0,29.79,SSE,147,0.0,0.0,50,0.00,,,0.00,,2013-04-23 03:21:00,
2013-04-22 20:32:00,68.0,51.0,29.78,SE,146,0.0,0.0,54,0.00,,,0.00,,2013-04-23 03:32:00,
2013-04-22 20:43:00,68.0,51.0,29.78,SE,146,0.0,0.0,54,0.00,,,0.00,,2013-04-23 03:43:00,
2013-04-22 20:53:00,68.0,51.0,29.78,SE,146,0.0,0.0,54,0.00,,,0.00,,2013-04-23 03:53:00,
2013-04-22 21:02:00,68.0,51.0,29.78,SE,146,0.0,0.0,54,0.00,,,0.00,,2013-04-23 04:02:00,
2013-04-22 21:12:00,68.0,51.0,29.78,SE,146,0.0,0.0,54,0.00,,,0.00,,2013-04-23 04:12:00,
2013-04-22 21:33:00,62.0,50.0,29.81,SSE,147,0.0,0.0,64,0.00,,,0.00,,2013-04-23 04:33:00,
2013-04-22 21:43:00,62.0,50.0,29.81,SSE,147,0.0,0.0,64,0.00,,,0.00,,2013-04-23 04:43:00,
2013-04-22 21:53:00,62.0,50.0,29.81,SSE,147,0.0,0.0,64,0.00,,,0.00,,2013-04-23 04:53:00,
2013-04-22 22:02:00,59.0,49.0,29.83,SSE,147,0.0,0.0,70,0.00,,,0.00,,2013-04-23 05:02:00,
2013-04-22 22:12:00,59.0,49.0,29.83,SSE,147,0.0,0.0,70,0.00,,,0.00,,2013-04-23 05:12:00,
2013-04-22 22:21:00,59.0,49.0,29.83,SSE,147,0.0,0.0,70,0.00,,,0.00,,2013-04-23 05:21:00,
2013-04-22 22:32:00,58.0,49.0,29.83,SSE,147,0.0,0.0,72,0.00,,,0.00,,2013-04-23 05:32:00,
2013-04-22 22:42:00,58.0,49.0,29.83,SSE,147,0.0,0.0,72,0.00,,,0.00,,2013-04-23 05:42:00,
2013-04-22 22:52:00,58.0,49.0,29.83,SSE,147,0.0,0.0,72,0.00,,,0.00,,2013-04-23 05:52:00,
2013-04-22 23:01:00,57.0,49.0,29.82,SSE,147,0.0,0.0,74,0.00,,,0.00,,2013-04-23 06:01:00,
2013-04-22 23:12:00,57.0,49.0,29.82,SSE,147,0.0,0.0,74,0.00,,,0.00,,2013-04-23 06:12:00,
2013-04-22 23:21:00,56.0,48.0,29.82,SSE,147,0.0,0.0,74,0.00,,,0.00,,2013-04-23 06:21:00,
2013-04-22 23:32:00,55.0,48.0,29.82,SSE,147,0.0,0.0,77,0.00,,,0.00,,2013-04-23 06:32:00,
2013-04-22 23:41:00,55.0,48.0,29.82,SSE,147,0.0,0.0,77,0.00,,,0.00,,2013-04-23 06:41:00,
2013-04-22 23:52:00,54.0,47.0,29.81,SSE,147,0.0,0.0,77,0.00,,,0.00,,2013-04-23 06:52:00,